[[{"header":{"parameterUnit":"m.s-1","parameterCategory":1,"la1":30.2991,"la2":30.254,"lo1":-89.0895,"lo2":-89.0444,"dy":0.0017,"dx":0.0017,"nx":28,"ny":28,"refTime":"2024-08-06T03:00:00:Z","depth":0,"parameterNumber":2,"parameterNumberName":"U-component_of_WINDS"},"data":[0,0,0,0,0,0,0,0,0,0,0,0,0,0,0,0,0,0,0,0,0,0,0,0,0,0,0,0,0,0,0,0,0,0,0,0,0,0,0,0,0,0,0,0,0,0,0,0,0,0,0,0,0,0,0,0,0,0,2.6973,2.6974,0,2.7042,2.7042,2.7043,2.7067,2.7066,2.7066,2.7066,2.7139,2.7141,2.7143,0,0,0,0,0,0,0,0,0,0,0,0,0,2.6867,2.6869,2.6973,2.6974,2.6975,2.7042,2.7042,2.7043,2.7067,2.7066,2.7066,2.7066,2.7138,2.714,2.7143,0,0,0,0,0,0,0,0,0,0,0,0,0,2.6922,2.687,2.6973,2.6994,2.6997,2.7041,2.7043,2.7044,2.7067,2.7066,2.7066,2.7065,2.7137,2.714,2.7143,2.7172,0,0,2.7154,2.7155,0,0,0,0,0,0,0,0,2.6919,2.6926,2.699,2.6993,2.6996,2.7045,2.7032,2.7087,2.7067,2.704,2.7066,2.7065,2.7108,2.7114,2.7128,2.7176,2.7179,2.7154,2.7156,2.7157,2.7158,0,0,0,0,0,0,0,2.6915,2.6924,2.7,2.6991,2.6995,2.7002,2.701,2.7043,2.7076,2.7043,2.7044,2.7052,2.7109,2.7124,2.7129,2.718,2.7154,2.7157,2.7159,2.716,2.7261,2.7261,0,0,0,0,0,0,2.6907,2.692,2.6998,2.7002,2.6956,2.7005,2.7013,2.703,2.7075,2.7082,2.7052,2.7053,2.7119,2.7126,2.7132,2.7172,2.7157,2.716,2.7162,2.726,2.7261,2.7261,0,0,0,0,0,0,2.6905,2.6914,2.6995,2.6962,2.6973,2.7007,2.7026,2.7031,2.7046,2.7083,2.7089,2.7061,2.7119,2.7127,2.7163,2.7175,2.7162,2.7165,2.7259,2.726,2.7261,2.725,0,0,0,0,0,0,2.6902,2.6913,2.6923,2.6962,2.6974,2.7023,2.7026,2.7033,2.7051,2.7053,2.7093,2.7099,2.7119,2.7158,2.7166,2.7179,2.7167,2.7258,2.726,2.7261,2.7249,2.725,2.7251,0,0,0,0,0,2.6898,2.6916,2.6923,2.6932,2.6987,2.7024,2.7031,2.7053,2.7052,2.7064,2.7088,2.7098,2.7172,2.7161,2.7171,2.7185,2.7258,2.7259,2.7261,2.7249,2.725,2.7251,0,0,0,0,0,0,2.6877,2.6922,2.693,2.6961,2.6988,2.7028,2.7042,2.7053,2.7082,2.7082,2.711,2.7118,2.7153,2.7172,2.716,2.7218,2.7216,2.7219,2.7203,2.7205,2.7206,2.72,2.717,0,0,0,0,0,2.6876,2.6901,2.6939,2.6963,2.6977,2.7007,2.7024,2.7039,2.7069,2.7081,2.7108,2.7138,2.7168,2.7188,2.7217,2.7252,2.7263,2.7267,2.7268,2.7269,2.7271,2.7296,2.7299,2.7267,2.7267,2.7267,0,0,2.6875,2.6902,2.6916,2.696,2.6983,2.701,2.7017,2.7044,2.7066,2.7085,2.7121,2.7142,2.7178,2.7214,2.7232,2.7232,2.7283,2.7271,2.7271,2.7273,2.7297,2.73,2.7303,2.7268,2.7267,2.7267,0,0,2.6886,2.6908,2.6932,2.6955,2.6991,2.7012,2.7018,2.7056,2.7071,2.7108,2.7124,2.7151,2.7202,2.7228,2.7248,2.7274,2.7285,2.7283,2.7288,2.7311,2.7313,2.7316,2.7328,2.7331,2.7285,2.7285,2.7285,0,2.6879,2.6919,2.6943,2.6971,2.6991,2.7011,2.7037,2.706,2.7103,2.7118,2.7117,2.7185,2.721,2.7254,2.7261,2.7276,2.7286,2.7278,2.7311,2.7313,2.7316,2.7328,2.7332,2.7285,2.7285,2.7285,2.7285,0,2.6911,2.6939,2.6954,2.6997,2.7019,2.7046,2.7076,2.7096,2.711,2.7132,2.7172,2.7203,2.7241,2.7253,2.7267,2.7301,2.7301,2.7305,2.7304,2.7318,2.733,2.7335,2.7285,2.7285,2.7285,2.7285,0,0,2.6907,2.6965,2.6971,2.6992,2.7035,2.7058,2.7088,2.7125,2.7144,2.7174,2.7202,2.7247,2.7252,2.7275,2.7293,2.7313,2.7335,2.7315,2.7317,2.732,2.7379,2.7376,2.7381,2.7343,2.7344,2.7345,2.7377,0,2.6925,2.6977,2.7002,2.7044,2.7073,2.7095,2.7121,2.7152,2.7174,2.7203,2.7229,2.7261,2.7265,2.7279,2.73,2.7328,2.7348,2.7326,2.7372,2.7373,2.7363,2.7386,2.7382,2.7411,2.7381,2.7382,2.7383,0,2.6951,2.6983,2.7029,2.7072,2.7085,2.7108,2.7147,2.7173,2.721,2.7226,2.7253,2.7271,2.7306,2.7303,2.7354,2.7338,2.7359,2.7376,2.7378,2.7384,2.7379,2.7394,2.742,2.7425,2.739,2.7389,2.7389,0,2.6947,2.7001,2.7036,2.7054,2.7104,2.7121,2.7143,2.7179,2.7202,2.7237,2.7252,2.7291,2.7312,2.7343,2.7372,2.7366,2.7421,2.742,2.7437,2.7437,2.7447,2.7446,2.7478,2.7459,2.7459,2.7459,2.7459,0,2.6964,2.6992,2.7036,2.7057,2.709,2.712,2.7152,2.7176,2.721,2.7238,2.726,2.7287,2.7323,2.7356,2.7379,2.742,2.7429,2.7444,2.745,2.7443,2.7441,2.7457,2.7456,2.746,2.746,2.746,2.7459,0,2.6964,2.6994,2.7035,2.7081,2.7093,2.7116,2.7156,2.718,2.7205,2.7242,2.7252,2.7292,2.7332,2.7364,2.7416,2.7432,2.7475,2.7481,2.7463,2.7466,2.7483,2.7481,2.7526,2.7535,2.7508,2.7509,2.7509,0,2.6973,2.6995,2.7045,2.7065,2.7088,2.712,2.7144,2.7176,2.72,2.7247,2.7266,2.7307,2.7342,2.7406,2.7441,2.7482,2.749,2.7503,2.7496,2.749,2.7493,2.7492,2.7496,2.7504,2.7504,2.7504,2.7504,0,2.6987,2.7002,2.7035,2.7075,2.7103,2.7135,2.7168,2.7185,2.7223,2.725,2.7292,2.7319,2.7374,2.7416,2.7462,2.7487,2.7504,2.7507,2.7513,2.7506,2.7495,2.7504,2.7466,2.7505,2.7505,2.7505,2.7505,2.7505,2.6993,2.7015,2.7054,2.7092,2.7121,2.7152,2.7178,2.7207,2.7242,2.7289,2.7306,2.735,2.7391,2.7454,2.748,2.7517,2.7518,2.7527,2.753,2.7532,2.7532,2.7489,2.7525,2.7525,2.7525,2.7525,2.7525,0,2.701,2.7037,2.7071,2.7118,2.7148,2.7161,2.72,2.7225,2.7263,2.73,2.7335,2.7385,2.7427,2.7467,2.7512,2.7534,2.7543,2.7545,2.7544,2.755,2.7527,2.7517,2.7537,2.7537,2.7537,2.7537,2.7537,2.7537,2.7022,2.7061,2.7081,2.7137,2.7164,2.7207,2.7228,2.7259,2.7289,2.7344,2.738,2.7405,2.7445,2.7494,2.7535,2.7546,2.7562,2.7563,2.7576,2.7553,2.7551,2.755,2.7541,2.7566,2.7566,2.7597,2.7597,2.7597]},{"header":{"parameterUnit":"m.s-1","parameterCategory":1,"la1":30.2991,"la2":30.254,"lo1":-89.0895,"lo2":-89.0444,"dy":0.0017,"dx":0.0017,"nx":28,"ny":28,"refTime":"2024-08-06T03:00:00:Z","depth":0,"parameterNumber":3,"parameterNumberName":"V-component_of_WINDS"},"data":[0,0,0,0,0,0,0,0,0,0,0,0,0,0,0,0,0,0,0,0,0,0,0,0,0,0,0,0,0,0,0,0,0,0,0,0,0,0,0,0,0,0,0,0,0,0,0,0,0,0,0,0,0,0,0,0,0,0,-2.1054,-2.1053,0,-2.0979,-2.0978,-2.0977,-2.1034,-2.1036,-2.1039,-2.1041,-2.0959,-2.0955,-2.095,0,0,0,0,0,0,0,0,0,0,0,0,0,-2.1244,-2.1241,-2.1054,-2.1053,-2.1052,-2.0979,-2.0978,-2.0977,-2.1033,-2.1036,-2.1039,-2.1042,-2.096,-2.0955,-2.095,0,0,0,0,0,0,0,0,0,0,0,0,0,-2.1164,-2.1239,-2.1054,-2.1072,-2.1073,-2.0979,-2.0978,-2.0977,-2.1033,-2.1036,-2.104,-2.1043,-2.0962,-2.0956,-2.0949,-2.0833,0,0,-2.0928,-2.0925,0,0,0,0,0,0,0,0,-2.1169,-2.1157,-2.107,-2.107,-2.1071,-2.102,-2.1015,-2.0928,-2.1032,-2.1048,-2.1041,-2.1045,-2.0976,-2.0968,-2.0946,-2.0829,-2.0826,-2.0928,-2.0924,-2.0921,-2.0919,0,0,0,0,0,0,0,-2.1174,-2.1161,-2.1024,-2.1069,-2.1069,-2.1082,-2.1075,-2.0999,-2.0992,-2.1046,-2.105,-2.1041,-2.0977,-2.0952,-2.0944,-2.0824,-2.0928,-2.0922,-2.0918,-2.0915,-2.0611,-2.0607,0,0,0,0,0,0,-2.1179,-2.1165,-2.1027,-2.1022,-2.113,-2.1076,-2.1068,-2.1032,-2.0993,-2.099,-2.1038,-2.1044,-2.0962,-2.0952,-2.0941,-2.0804,-2.0921,-2.0914,-2.0911,-2.0615,-2.061,-2.0606,0,0,0,0,0,0,-2.1183,-2.1166,-2.103,-2.1095,-2.1078,-2.1069,-2.1028,-2.1029,-2.1004,-2.0986,-2.0985,-2.1014,-2.0964,-2.0951,-2.086,-2.0802,-2.0911,-2.0905,-2.062,-2.0613,-2.0608,-2.0528,0,0,0,0,0,0,-2.1188,-2.1167,-2.1123,-2.1093,-2.1075,-2.095,-2.1025,-2.1025,-2.0993,-2.1,-2.0964,-2.0961,-2.0966,-2.087,-2.0854,-2.0795,-2.09,-2.0625,-2.0617,-2.061,-2.0535,-2.052,-2.0506,0,0,0,0,0,-2.1194,-2.1102,-2.1121,-2.1104,-2.102,-2.0947,-2.0936,-2.0945,-2.0988,-2.0944,-2.0933,-2.0962,-2.0811,-2.086,-2.0842,-2.078,-2.0628,-2.0619,-2.061,-2.0542,-2.0523,-2.0506,0,0,0,0,0,0,-2.1123,-2.1098,-2.1119,-2.1014,-2.0983,-2.0957,-2.0901,-2.0924,-2.0878,-2.0886,-2.0899,-2.089,-2.0795,-2.0779,-2.0834,-2.0667,-2.0727,-2.0713,-2.0681,-2.0662,-2.0648,-2.0653,-2.0894,0,0,0,0,0,-2.1095,-2.1039,-2.102,-2.093,-2.0913,-2.091,-2.0878,-2.0888,-2.0855,-2.0841,-2.0824,-2.0789,-2.0735,-2.0698,-2.0646,-2.0534,-2.0527,-2.0483,-2.0468,-2.0456,-2.0444,-2.0385,-2.0365,-2.0576,-2.0576,-2.0576,0,0,-2.1037,-2.1017,-2.098,-2.0915,-2.0892,-2.0833,-2.0898,-2.0832,-2.0788,-2.0831,-2.0745,-2.0731,-2.0693,-2.0592,-2.0546,-2.0575,-2.0385,-2.0445,-2.0435,-2.043,-2.0374,-2.0354,-2.0336,-2.057,-2.0571,-2.0572,0,0,-2.09,-2.0879,-2.0803,-2.0779,-2.0744,-2.0742,-2.0724,-2.0695,-2.0688,-2.0602,-2.0634,-2.0581,-2.0486,-2.0459,-2.0432,-2.0289,-2.0314,-2.0272,-2.0194,-2.0136,-2.012,-2.0105,-2.0054,-2.0036,-2.026,-2.026,-2.026,0,-2.0832,-2.0745,-2.076,-2.0692,-2.0663,-2.0702,-2.0624,-2.06,-2.0548,-2.0527,-2.0561,-2.0444,-2.0422,-2.0315,-2.028,-2.0258,-2.0237,-2.0275,-2.0121,-2.0107,-2.0093,-2.0045,-2.0026,-2.0255,-2.0255,-2.0256,-2.0256,0,-2.0663,-2.0602,-2.0544,-2.0496,-2.0461,-2.0388,-2.0391,-2.0353,-2.0368,-2.0363,-2.0275,-2.025,-2.0195,-2.0171,-2.0183,-2.0066,-2.0086,-2.012,-2.018,-2.0068,-2.0023,-2.0004,-2.0248,-2.025,-2.0251,-2.0252,0,0,-2.0476,-2.044,-2.0418,-2.0398,-2.0363,-2.0316,-2.0246,-2.0194,-2.0162,-2.0126,-2.0067,-1.9987,-2.002,-1.999,-2.0,-1.9949,-1.9838,-1.999,-1.9989,-1.9963,-1.9709,-1.9682,-1.9661,-1.9856,-1.9852,-1.9849,-1.9712,0,-2.0338,-2.0217,-2.023,-2.0114,-2.0059,-2.0097,-2.0036,-2.0008,-2.0002,-1.9953,-1.9947,-1.989,-1.9937,-1.992,-1.9872,-1.9862,-1.9787,-1.9872,-1.98,-1.9797,-1.9808,-1.9637,-1.9609,-1.948,-1.9694,-1.9691,-1.9689,0,-2.016,-2.0121,-2.0001,-1.9977,-1.9954,-1.9899,-1.9853,-1.9807,-1.9776,-1.9776,-1.9744,-1.9763,-1.9692,-1.9755,-1.9658,-1.9715,-1.9687,-1.9678,-1.9673,-1.9666,-1.9736,-1.9625,-1.9439,-1.942,-1.9661,-1.9663,-1.9665,0,-2.0037,-1.9953,-1.9871,-1.9853,-1.9822,-1.9783,-1.9768,-1.9742,-1.971,-1.967,-1.965,-1.9602,-1.9575,-1.9537,-1.9543,-1.9588,-1.9444,-1.9507,-1.9441,-1.944,-1.9407,-1.9409,-1.9214,-1.939,-1.939,-1.9391,-1.9391,0,-1.9881,-1.9806,-1.9816,-1.9765,-1.9682,-1.9698,-1.9615,-1.9605,-1.9582,-1.9529,-1.9559,-1.9509,-1.952,-1.947,-1.9474,-1.9393,-1.9381,-1.9378,-1.938,-1.9375,-1.9375,-1.9356,-1.9365,-1.9386,-1.9387,-1.9388,-1.9389,0,-1.9728,-1.9732,-1.9645,-1.9625,-1.9618,-1.9558,-1.954,-1.9492,-1.949,-1.9424,-1.9409,-1.9405,-1.9348,-1.9351,-1.9286,-1.9289,-1.9189,-1.9202,-1.92,-1.9202,-1.9137,-1.9143,-1.8922,-1.8894,-1.9088,-1.9086,-1.9084,0,-1.9628,-1.9571,-1.9546,-1.9514,-1.9498,-1.9446,-1.9415,-1.9428,-1.9395,-1.9357,-1.9314,-1.9261,-1.9218,-1.9126,-1.9117,-1.9068,-1.9079,-1.9005,-1.9071,-1.9069,-1.9078,-1.9081,-1.9076,-1.8991,-1.8989,-1.8987,-1.8986,0,-1.945,-1.9455,-1.941,-1.9367,-1.933,-1.9295,-1.9264,-1.9236,-1.9246,-1.9207,-1.9151,-1.9118,-1.9054,-1.9,-1.8954,-1.8939,-1.8963,-1.8966,-1.8948,-1.8942,-1.8943,-1.8942,-1.9164,-1.897,-1.8972,-1.8973,-1.8974,-1.8974,-1.932,-1.9273,-1.9248,-1.9198,-1.9176,-1.9147,-1.9102,-1.9095,-1.9049,-1.8999,-1.901,-1.8946,-1.8919,-1.886,-1.884,-1.879,-1.8817,-1.8791,-1.8784,-1.8777,-1.877,-1.8952,-1.8782,-1.8782,-1.8783,-1.8783,-1.8784,0,-1.9144,-1.9131,-1.9085,-1.9041,-1.9002,-1.9032,-1.8999,-1.8964,-1.8908,-1.8882,-1.8841,-1.8777,-1.8726,-1.8714,-1.8665,-1.8628,-1.8638,-1.8614,-1.8617,-1.8613,-1.8749,-1.877,-1.8607,-1.8607,-1.8607,-1.8607,-1.8607,-1.8607,-1.9047,-1.8969,-1.8972,-1.8883,-1.8871,-1.881,-1.8789,-1.8763,-1.8742,-1.867,-1.8628,-1.8622,-1.8601,-1.8551,-1.8506,-1.8504,-1.8485,-1.8456,-1.8458,-1.8585,-1.8603,-1.862,-1.8639,-1.8452,-1.8452,-1.8326,-1.8325,-1.8324]}]]